ABR5MS LROP-ELLX

Flight info

Callsign ABR5MS
Flight time N/A
Altitude 38000
Route POLUN DCT VIKBI DCT CRV DCT ANASA DCT NASSY DCT PODET DCT BERTA DCT UMVEG DCT KPT L608 KUNOD DCT KOVAN T894 BITBU Z110 BETEX
Aircraft B738/M-SDE2E3FGHIRWXY/LB1

Departure

Time N/A
Airport Bucharest Henri Coandă International Airport (LROP)

Arrival

Time 2026-05-04 11:05
Airport Luxembourg-Findel International Airport (ELLX)
Time Latitude Longitude Altitude Speed Heading
2026-05-04 10:54 49.87175 5.98183 5564 ft 255 kts 84°
2026-05-04 10:54 49.87495 6.00893 5434 ft 255 kts 83°
2026-05-04 10:56 49.85469 6.17713 4583 ft 230 kts 129°
2026-05-04 10:56 49.84578 6.19798 4506 ft 232 kts 129°
2026-05-04 10:56 49.83683 6.21879 4413 ft 238 kts 128°
2026-05-04 10:57 49.82753 6.24023 4330 ft 239 kts 129°
2026-05-04 10:57 49.81819 6.26131 4228 ft 236 kts 129°
2026-05-04 10:57 49.80868 6.28187 4150 ft 233 kts 129°
2026-05-04 10:57 49.79922 6.30228 4036 ft 234 kts 130°
2026-05-04 10:58 49.79010 6.32297 3930 ft 231 kts 127°
2026-05-04 10:58 49.78146 6.34380 3840 ft 232 kts 128°
2026-05-04 10:58 49.77265 6.36478 3731 ft 232 kts 127°
2026-05-04 10:58 49.76395 6.38599 3621 ft 233 kts 127°
2026-05-04 10:59 49.75525 6.40722 3550 ft 234 kts 127°
2026-05-04 10:59 49.74651 6.42840 3473 ft 233 kts 127°
2026-05-04 10:59 49.73778 6.44932 3351 ft 235 kts 127°
2026-05-04 10:59 49.72886 6.47047 3236 ft 235 kts 127°
2026-05-04 11:00 49.71772 6.48821 3098 ft 228 kts 155°
2026-05-04 11:01 49.68649 6.38177 2971 ft 189 kts 245°
2026-05-04 11:02 49.68166 6.36427 2967 ft 171 kts 245°
2026-05-04 11:02 49.67702 6.34895 2897 ft 175 kts 242°
2026-05-04 11:05 49.62132 6.19603 1199 ft 11 kts 323°
2026-05-04 11:06 49.62195 6.19547 1200 ft 10 kts 334°
2026-05-04 11:06 49.62215 6.19548 1201 ft 2 kts 25°
2026-05-04 11:06 49.62226 6.19562 1202 ft 3 kts 43°
2026-05-04 11:06 49.62243 6.19600 1204 ft 6 kts 59°
2026-05-04 11:08 49.62544 6.20374 1241 ft 12 kts 51°
2026-05-04 11:10 49.62882 6.21016 1240 ft 11 kts 64°
2026-05-04 11:12 49.62921 6.21142 1244 ft 0 kts 64°
2026-05-04 11:13 49.62925 6.21156 1237 ft 5 kts 64°
2026-05-04 11:13 49.62947 6.21225 1233 ft 9 kts 64°
2026-05-04 11:13 49.62977 6.21322 1232 ft 12 kts 64°
2026-05-04 11:14 49.63016 6.21446 1229 ft 14 kts 64°
2026-05-04 11:14 49.63062 6.21589 1227 ft 15 kts 65°
2026-05-04 11:14 49.63105 6.21731 1228 ft 14 kts 65°
2026-05-04 11:16 49.63422 6.22476 1219 ft 12 kts 329°
2026-05-04 11:16 49.63489 6.22416 1220 ft 9 kts 330°
2026-05-04 11:16 49.63525 6.22446 1220 ft 8 kts 65°
2026-05-04 11:17 49.63550 6.22514 1220 ft 7 kts 60°
2026-05-04 11:17 49.63553 6.22523 1221 ft 0 kts 60°